Hourly Data Report for December 02, 2020

L'ASSOMPTION
QUEBEC
Current Station Operator: ECCC - MSC

45°48'34.000" N
73°26'05.000" W
21.00 m
7014160
71524
WEW

Download Data

Hourly Data (December 2020)
Hourly Data Report for December 2, 2020
TIME
LST
Temp Definition
°C
Dew Point Definition
°C
Rel Hum Definition
%
Precip. Amount Definition
mm

Wind Dir Definition
10's deg

Wind Spd Definition
km/h
Visibility Definition
km
Stn Press Definition
kPa
Hmdx Definition


Wind Chill Definition


Weather Definition


00:00 4.2 2.3 87 0.0 20 15   99.83     LegendNANA
01:00 3.8 1.2 83 0.0 19 15   99.93     LegendNANA
02:00 3.7 0.6 80 0.0 19 12   100.01     LegendNANA
03:00 3.4 -0.4 76 0.0 21 17   100.03     LegendNANA
04:00 3.2 -0.2 78 0.0 20 7   100.11     LegendNANA
05:00 3.3 1.6 89 0.0 16 9   100.17     LegendNANA
06:00 3.3 1.3 87 0.0 15 14   100.18     LegendNANA
07:00 2.8 0.7 86 0.0 16 12   100.22     LegendNANA
08:00 3.4 0.5 81 0.0 17 12   100.24     LegendNANA
09:00 2.4 0.5 87 0.0 22 12   100.30     LegendNANA
10:00 3.3 -0.3 77 0.3 19 15   100.36     LegendNANA
11:00 3.2 -0.9 74 0.0 19 18   100.39     LegendNANA
12:00 2.3 0.3 86 0.2 23 10   100.42     LegendNANA
13:00 3.0 -0.8 76 0.0 21 18   100.43     LegendNANA
14:00 2.0 -0.2 85 0.0 23 13   100.47     LegendNANA
15:00 1.2 -2.0 79 0.0 22 18   100.54     LegendNANA
16:00 0.6 -4.1 71 0.0 24 18   100.60     LegendNANA
17:00 0.0 -3.5 77 0.0 23 18   100.65   -5 LegendNANA
18:00 -0.4 -3.4 80 0.0 23 17   100.69   -5 LegendNANA
19:00 -0.5 -4.7 73 0.0 25 17   100.79   -5 LegendNANA
20:00 -0.5 -4.8 73 0.0 25 15   100.84   -5 LegendNANA
21:00 -0.5 -4.0 77 0.0 24 11   100.87   -4 LegendNANA
22:00 -1.0 -4.1 80 0.0 24 18   100.90   -6 LegendNANA
23:00 -1.1 -4.6 77 0.0 24 18   100.95   -6 LegendNANA

Notes on Data Quality.

Legend

  • E = Estimated
  • M = Missing
  • NA = Not Available*
  • [empty] = Indicates an unobserved value
Date modified: